Location: Garden of he Gods Recreation Area
(37.6010°N, 88.3780°W)
Time: 04:01:33
(UTC-06:00)

Hubble Space Telescope - Visible Passes

Search period start: 23 January 2018 00:00
Search period end: 02 February 2018 00:00
Orbit: 537 x 541 km, 28.5° (Epoch: 22 January)

Date Brightness Start Highest point End Pass type
(mag) Time Alt. Az. Time Alt. Az. Time Alt. Az.
23 Jan 3.3 19:33:18 10° SW 19:34:20 14° SSW 19:34:20 14° SSW visible
24 Jan 3.2 17:44:10 10° S 17:45:24 11° SSE 17:46:39 10° SE visible
24 Jan 2.9 19:22:49 10° SW 19:24:44 18° SSW 19:24:44 18° SSW visible
25 Jan 3.2 17:33:01 10° SSW 17:35:01 13° SSE 17:37:01 10° SE visible
25 Jan 2.6 19:12:23 10° SW 19:15:07 21° S 19:15:07 21° S visible
26 Jan 2.4 19:01:59 10° SW 19:05:15 23° S 19:05:31 22° S visible
27 Jan 2.5 18:51:38 10° SW 18:54:54 23° S 18:55:55 21° SSE visible
28 Jan 2.6 18:41:19 10° SW 18:44:34 22° S 18:46:21 17° SSE visible
29 Jan 2.7 18:31:02 10° SW 18:34:13 22° S 18:36:50 13° SE visible
30 Jan 2.9 18:20:47 10° WSW 18:23:52 20° S 18:26:56 10° SE visible
31 Jan 3.0 18:10:36 10° SW 18:13:31 19° S 18:16:26 10° SE visible
01 Feb 3.2 18:00:28 10° SW 18:03:09 17° SSW 18:05:50 10° SSE visible
